ORBVIEW 2 (SEASTAR) 1 24883U 97037A 12034.40948599 .00000191 00000-0 86277-4 0 6441 2 24883 98.3990 156.9592 0002862 140.3634 219.7744 14.32396985771101 METEOSAT-7 1 24932U 97049B 12030.73649633 .00000059 00000-0 00000+0 0 9506 2 24932 7.4040 58.0194 0000908 293.9476 100.2221 1.00279346 52794 NOAA 15 1 25338U 98030A 12034.45914932 -.00000028 00000-0 66402-5 0 1264 2 25338 98.6790 22.7219 0011143 136.8541 223.3515 14.25025550713666 NOAA 16 1 26536U 00055A 12034.47095006 -.00000152 00000-0 -56906-4 0 6103 2 26536 99.1141 74.4014 0011388 103.0432 257.2013 14.12700301586012 GOES 12 1 26871U 01031A 12034.17678125 -.00000282 00000-0 10000-3 0 4370 2 26871 1.9556 74.4795 0001621 278.9587 142.6729 1.00285113 38647 FENGYUN 1D 1 27431U 02024B 12034.72422812 .00000114 00000-0 89759-4 0 8530 2 27431 98.7463 5.1204 0014840 208.5962 151.4395 14.09349711500245 NOAA 17 1 27453U 02032A 12034.29390664 -.00000055 00000-0 -61502-5 0 5837 2 27453 98.3530 68.0535 0011577 187.8989 172.2010 14.24388661499557 METEOSAT-8 (MSG-1) 1 27509U 02040B 12031.05240120 .00000066 00000-0 00000+0 0 8462 2 27509 1.0742 56.5548 0001194 17.9481 83.4045 1.00277760 34604 KALPANA-1 (METSAT 1) 1 27525U 02043A 12033.69165007 -.00000076 00000-0 10000-3 0 4020 2 27525 2.5598 71.8283 0006936 210.1377 173.2392 1.00272626 34433 INSAT-3A 1 27714U 03013A 12032.75534487 -.00000254 00000-0 10000-3 0 9535 2 27714 0.0942 257.6067 0006462 32.2911 206.8585 1.00273567 32322 FENGYUN 2C 1 28451U 04042A 12033.64969523 -.00000357 00000-0 10000-3 0 3313 2 28451 3.6728 67.5651 0001735 305.5262 116.6237 1.00276890 26688 HIMAWARI-6 (MTSAT-1R) 1 28622U 05006A 12032.53531311 -.00000276 00000-0 10000-3 0 6145 2 28622 0.0368 266.9752 0000550 67.9401 128.9585 1.00274142 25379 NOAA 18 1 28654U 05018A 12034.32419292 -.00000076 00000-0 -16942-4 0 601 2 28654 99.0288 351.4167 0014205 171.1731 188.9700 14.11598812345536 METEOSAT-9 (MSG-2) 1 28912U 05049B 12034.04089951 .00000003 00000-0 00000+0 0 225 2 28912 0.3930 358.0569 0002311 213.6159 295.9788 1.00281076 22488 MTSAT-2 1 28937U 06004A 12033.63631392 -.00000238 00000-0 10000-3 0 990 2 28937 0.0188 90.5066 0001870 252.6101 163.2373 1.00273997 21867 FORMOSAT-3 FM6 1 29047U 06011A 12034.46146493 .00000420 00000-0 18568-3 0 7183 2 29047 71.9769 224.4357 0052840 289.3447 70.1993 14.27386786304879 FORMOSAT-3 FM1 1 29048U 06011B 12034.47587077 .00000392 00000-0 17471-3 0 8015 2 29048 71.9700 138.7328 0046692 242.9985 116.6363 14.27402781307357 FORMOSAT-3 FM5 1 29049U 06011C 12033.99444539 .00000363 00000-0 16364-3 0 7441 2 29049 72.0234 294.1529 0036847 295.4458 64.2863 14.27415480303068 FORMOSAT-3 FM3 1 29050U 06011D 12033.88407016 .00001124 00000-0 26646-3 0 612 2 29050 72.0173 24.2995 0051713 111.7405 248.9256 14.55101577310911 FORMOSAT-3 FM4 1 29051U 06011E 12034.37936810 .00000375 00000-0 16522-3 0 7994 2 29051 72.0059 200.7457 0069792 168.6117 191.6624 14.27411781305700 FORMOSAT-3 FM2 1 29052U 06011F 12034.13488251 .00000362 00000-0 16273-3 0 8204 2 29052 72.0360 266.3641 0042681 264.0537 95.5732 14.27451244303971 GOES 13 1 29155U 06018A 12034.45241019 -.00000248 00000-0 10000-3 0 9352 2 29155 0.4085 80.7712 0001810 317.4116 183.1631 1.00270426 20893 METOP-A 1 29499U 06044A 12033.69958577 .00000230 00000-0 12523-3 0 6451 2 29499 98.7199 94.7368 0002181 84.2383 275.9044 14.21476516274477 FENGYUN 2D 1 29640U 06053A 12032.84262221 -.00000197 00000-0 10000-3 0 3468 2 29640 2.0518 76.9052 0001750 322.7239 121.8165 1.00272284 18929 FENGYUN 3A 1 32958U 08026A 12034.83252038 .00000041 00000-0 39719-4 0 5820 2 32958 98.6612 106.3934 0000301 127.3190 232.8002 14.19708823191229 NOAA 19 1 33591U 09005A 12034.30188475 .00000311 00000-0 19638-3 0 2483 2 33591 98.8520 335.8525 0014757 44.7515 315.4846 14.11290002153983 GOES 14 1 35491U 09033A 12034.30085697 -.00000083 00000-0 00000+0 0 3158 2 35491 0.1000 248.3774 0003205 191.8771 55.4519 1.00271812 9565 METEOR-M 1 1 35865U 09049A 12034.74211401 -.00000013 00000-0 13881-4 0 1227 2 35865 98.6743 91.4739 0003296 81.9944 278.1603 14.21854911123496 GOES 15 1 36411U 10008A 12033.13629844 .00000092 00000-0 00000+0 0 9237 2 36411 0.0404 257.0515 0000946 318.2374 190.6630 1.00261324 7053 COMS 1 1 36744U 10032A 12034.27533397 -.00000342 00000-0 10000-3 0 3043 2 36744 0.0257 64.0583 0000966 262.4732 33.6166 1.00269627 6030 FENGYUN 3B 1 37214U 10059A 12034.79314771 .00000093 00000-0 64513-4 0 3721 2 37214 98.7470 338.2192 0002013 68.9816 291.1577 14.19744016 64713 ELEKTRO-L 1 (GOMS 2) 1 37344U 11001A 12033.67481366 -.00000094 00000-0 10000-3 0 2681 2 37344 0.0379 115.9237 0001176 304.0976 31.2007 1.00271879 3858 SUOMI NPP 1 37849U 11061A 12033.98034657 -.00002636 00000-0 -12304-2 0 926 2 37849 98.7039 333.6775 0001523 64.1069 296.0383 14.19533466 13850 FENGYUN 2F 1 38049U 12002A 12033.87693683 -.00000352 00000-0 10000-3 0 242 2 38049 2.3660 277.8509 0006254 265.5749 16.9242 1.00276285 269